Regional Weather Roundup
Issued by NWS

Home | Current Version | Previous Version | Text Only | Print | Product List | Glossary On
Versions: 1 2 3 4 5 6 7 8 9 10 11 12 13 14 15 16 17 18 19 20 21 22 23 24 25 26 27 28 29 30 31 32 33 34 35 36 37 38 39 40 41 42 43 44 45 46 47 48 49 50
000
ASUS43 KTOP 250159
RWRKS

WEATHER ROUNDUP FOR KANSAS
NATIONAL WEATHER SERVICE GOODLAND KS
900 PM CDT FRI APR 24 2015

NOTE:  "FAIR" INDICATES FEW OR NO CLOUDS BELOW 12,000 FEET WITH NO
SIGNIFICANT WEATHER AND/OR OBSTRUCTIONS TO VISIBILITY.

KSZ001>006-013>018-027>032-041>047-250300-
NORTHWEST KANSAS

CITY           SKY/WX    TMP DP  RH WIND       PRES   REMARKS
GOODLAND       CLOUDY    58  39  49 N17       29.54R
HAYS           CLOUDY    57  50  77 E9        29.51R
HILL CITY      TSTM      59  55  87 SE13      29.51R FOG
RUSSELL        HVY RAIN  58  55  90 SE14      29.49R
$$

KSZ061>065-074>080-084>089-250300-
SOUTHWEST KANSAS

CITY           SKY/WX    TMP DP  RH WIND       PRES   REMARKS
DODGE CITY     CLOUDY    60  46  59 NW23G39   29.49R
ELKHART          N/A     60  41  49 N3          N/A
GARDEN CITY    LGT RAIN  55  45  68 N17       29.52S
GREAT BEND     CLOUDY    59  52  77 N9        29.46F
LIBERAL        MOCLDY    61  43  51 N3        29.53R
$$

KSZ066>073-081>083-090>101-250300-
SOUTHEAST KANSAS

CITY           SKY/WX    TMP DP  RH WIND       PRES   REMARKS
CHANUTE        CLOUDY    66  59  78 S13       29.56R
COFFEYVILLE    PTCLDY    66  58  75 S23G29    29.53F
HUTCHINSON     MOCLDY    71  53  52 W20G26    29.49R THUNDER
MEDICINE LODGE   N/A     68  57  68 S15G24    29.45R
NEWTON         PTCLDY    66  54  63 S25       29.47R
PARSONS        PTCLDY    66  59  78 S16G23    29.55R
WICHITA INTL   PTCLDY    67  58  72 S23G32    29.46S
WICHITA JABRA  CLEAR     67  57  70 S21G38    29.47S
WINFIELD       CLEAR     66  60  81 S23G33    29.51S
$$

KSZ007>012-019>026-033>040-048>060-102>105-250300-
NORTHEAST KANSAS

CITY           SKY/WX    TMP DP  RH WIND       PRES   REMARKS
CONCORDIA      TSTM      57  56  96 CALM      29.52R FOG
EMPORIA        PTCLDY    65  58  78 S17G23    29.48F
LAWRENCE       CLOUDY    64  56  75 E10       29.54F
MANHATTAN      LGT RAIN  61  58  90 E12       29.47R
OLATHE IND     CLOUDY    63  56  78 SE10      29.55F
OLATHE EXE     CLOUDY    62  55  77 SE12      29.55F
SALINA         TSTM      59  55  87 NW23G37   29.48R FOG
TOPEKA BILLARD CLOUDY    64  57  78 E5        29.53R
TOPEKA FORBES  CLOUDY    66  58  75 SE10      29.52R
$$



USA.gov is the U.S. government's official web portal to all federal, state and local government web resources and services.